Time,TemperatureF,DewpointF,PressureIn,WindDirection,WindDirectionDegrees,WindSpeedMPH,WindSpeedGustMPH,Humidity,HourlyPrecipIn,Conditions,Clouds,dailyrainin,SoftwareType,DateUTC
2013-07-07 00:04:00,54.6,53.8,29.79,WSW,245,10.0,15.0,97,0.00,,,0.00,WeatherCatV1.14B232,2013-07-07 07:04:00,
2013-07-07 00:09:00,54.7,54.1,29.80,West,260,11.0,14.0,98,0.00,,,0.00,WeatherCatV1.14B232,2013-07-07 07:09:00,
2013-07-07 00:14:00,54.6,53.8,29.80,WSW,238,8.0,12.0,97,0.00,,,0.00,WeatherCatV1.14B232,2013-07-07 07:14:00,
2013-07-07 00:19:00,54.6,53.8,29.80,SW,217,10.0,12.0,97,0.00,,,0.00,WeatherCatV1.14B232,2013-07-07 07:19:00,
2013-07-07 00:24:00,54.7,53.9,29.80,West,259,7.0,10.0,97,0.00,,,0.00,WeatherCatV1.14B232,2013-07-07 07:24:00,
2013-07-07 00:29:00,54.7,53.9,29.80,WSW,250,8.0,10.0,97,0.00,,,0.00,WeatherCatV1.14B232,2013-07-07 07:29:00,
2013-07-07 00:34:00,54.8,54.0,29.80,WSW,255,8.0,9.0,97,0.00,,,0.00,WeatherCatV1.14B232,2013-07-07 07:34:00,
2013-07-07 00:39:00,54.9,54.3,29.80,West,276,9.0,14.0,98,0.00,,,0.00,WeatherCatV1.14B232,2013-07-07 07:39:00,
2013-07-07 00:44:00,54.9,54.1,29.80,West,263,7.0,11.0,97,0.00,,,0.00,WeatherCatV1.14B232,2013-07-07 07:44:00,
2013-07-07 00:49:00,54.9,54.1,29.79,WSW,251,7.0,12.0,97,0.00,,,0.00,WeatherCatV1.14B232,2013-07-07 07:49:00,
2013-07-07 00:54:00,54.9,54.1,29.79,WSW,243,11.0,12.0,97,0.00,,,0.00,WeatherCatV1.14B232,2013-07-07 07:54:00,
2013-07-07 00:59:00,54.9,54.1,29.80,West,259,8.0,12.0,97,0.00,,,0.00,WeatherCatV1.14B232,2013-07-07 07:59:00,
2013-07-07 01:04:00,54.9,54.1,29.79,West,264,8.0,12.0,97,0.00,,,0.00,WeatherCatV1.14B232,2013-07-07 08:04:00,
2013-07-07 01:09:00,54.9,54.1,29.79,WSW,257,6.0,14.0,97,0.00,,,0.00,WeatherCatV1.14B232,2013-07-07 08:09:00,
2013-07-07 01:14:00,54.9,54.1,29.80,WSW,255,9.0,9.0,97,0.00,,,0.00,WeatherCatV1.14B232,2013-07-07 08:14:00,
2013-07-07 01:19:00,55.0,54.2,29.80,WSW,238,11.0,11.0,97,0.00,,,0.00,WeatherCatV1.14B232,2013-07-07 08:19:00,
2013-07-07 01:24:00,55.0,54.2,29.79,West,266,6.0,12.0,97,0.00,,,0.00,WeatherCatV1.14B232,2013-07-07 08:24:00,
2013-07-07 01:29:00,55.1,54.3,29.79,WSW,241,8.0,11.0,97,0.00,,,0.00,WeatherCatV1.14B232,2013-07-07 08:29:00,
2013-07-07 01:34:00,55.1,54.3,29.80,SW,219,8.0,13.0,97,0.00,,,0.00,WeatherCatV1.14B232,2013-07-07 08:34:00,
2013-07-07 01:39:00,55.1,54.3,29.80,West,266,7.0,11.0,97,0.00,,,0.00,WeatherCatV1.14B232,2013-07-07 08:39:00,
2013-07-07 01:44:00,55.1,54.3,29.80,WSW,255,10.0,11.0,97,0.00,,,0.00,WeatherCatV1.14B232,2013-07-07 08:44:00,
2013-07-07 01:49:00,55.1,54.3,29.79,WSW,256,9.0,13.0,97,0.00,,,0.00,WeatherCatV1.14B232,2013-07-07 08:49:00,
2013-07-07 01:54:00,55.1,54.3,29.79,WSW,257,11.0,14.0,97,0.00,,,0.00,WeatherCatV1.14B232,2013-07-07 08:54:00,
2013-07-07 01:59:00,55.1,54.3,29.79,WSW,257,9.0,14.0,97,0.00,,,0.00,WeatherCatV1.14B232,2013-07-07 08:59:00,
2013-07-07 02:04:00,55.2,54.4,29.79,West,262,11.0,15.0,97,0.00,,,0.00,WeatherCatV1.14B232,2013-07-07 09:04:00,
2013-07-07 02:09:00,55.2,54.4,29.79,West,268,10.0,16.0,97,0.00,,,0.00,WeatherCatV1.14B232,2013-07-07 09:09:00,
2013-07-07 02:14:00,55.3,54.5,29.79,WSW,258,9.0,16.0,97,0.00,,,0.00,WeatherCatV1.14B232,2013-07-07 09:14:00,
2013-07-07 02:19:00,55.3,54.5,29.79,West,268,7.0,14.0,97,0.00,,,0.00,WeatherCatV1.14B232,2013-07-07 09:19:00,
2013-07-07 02:24:00,55.2,54.4,29.79,SW,218,9.0,17.0,97,0.00,,,0.00,WeatherCatV1.14B232,2013-07-07 09:24:00,
2013-07-07 02:29:00,55.2,54.4,29.80,WSW,242,11.0,16.0,97,0.00,,,0.00,WeatherCatV1.14B232,2013-07-07 09:29:00,
2013-07-07 02:34:00,55.1,54.0,29.80,SW,224,11.0,15.0,96,0.00,,,0.00,WeatherCatV1.14B232,2013-07-07 09:34:00,
2013-07-07 02:39:00,55.1,54.0,29.80,West,268,11.0,13.0,96,0.00,,,0.00,WeatherCatV1.14B232,2013-07-07 09:39:00,
2013-07-07 02:44:00,55.1,54.0,29.79,WSW,257,11.0,17.0,96,0.00,,,0.00,WeatherCatV1.14B232,2013-07-07 09:44:00,
2013-07-07 02:49:00,55.0,53.9,29.80,WSW,240,9.0,14.0,96,0.00,,,0.00,WeatherCatV1.14B232,2013-07-07 09:49:00,
2013-07-07 02:54:00,55.1,54.0,29.80,West,263,9.0,13.0,96,0.00,,,0.00,WeatherCatV1.14B232,2013-07-07 09:54:00,
2013-07-07 02:59:00,55.0,53.9,29.80,WNW,282,7.0,13.0,96,0.00,,,0.00,WeatherCatV1.14B232,2013-07-07 09:59:00,
2013-07-07 03:04:00,54.9,53.8,29.80,WSW,253,11.0,16.0,96,0.00,,,0.00,WeatherCatV1.14B232,2013-07-07 10:04:00,
2013-07-07 03:09:00,54.9,53.8,29.79,SW,234,10.0,16.0,96,0.00,,,0.00,WeatherCatV1.14B232,2013-07-07 10:09:00,
2013-07-07 03:14:00,55.0,53.9,29.79,West,265,9.0,17.0,96,0.00,,,0.00,WeatherCatV1.14B232,2013-07-07 10:14:00,
2013-07-07 03:19:00,54.9,53.8,29.79,WSW,256,11.0,16.0,96,0.00,,,0.00,WeatherCatV1.14B232,2013-07-07 10:19:00,
2013-07-07 03:24:00,54.9,53.8,29.79,WSW,242,11.0,15.0,96,0.00,,,0.00,WeatherCatV1.14B232,2013-07-07 10:24:00,
2013-07-07 03:29:00,54.8,53.7,29.79,West,277,11.0,16.0,96,0.00,,,0.00,WeatherCatV1.14B232,2013-07-07 10:29:00,
2013-07-07 03:34:00,54.9,53.8,29.79,West,260,10.0,15.0,96,0.00,,,0.00,WeatherCatV1.14B232,2013-07-07 10:34:00,
2013-07-07 03:39:00,54.8,54.0,29.79,WSW,258,9.0,14.0,97,0.00,,,0.00,WeatherCatV1.14B232,2013-07-07 10:39:00,
2013-07-07 03:44:00,54.9,54.1,29.80,SW,231,10.0,15.0,97,0.00,,,0.00,WeatherCatV1.14B232,2013-07-07 10:44:00,
2013-07-07 03:49:00,54.8,54.0,29.80,WSW,258,6.0,11.0,97,0.00,,,0.00,WeatherCatV1.14B232,2013-07-07 10:49:00,
2013-07-07 03:54:00,54.8,54.0,29.80,WSW,245,11.0,14.0,97,0.00,,,0.00,WeatherCatV1.14B232,2013-07-07 10:54:00,
2013-07-07 03:59:00,54.8,54.0,29.80,West,264,12.0,13.0,97,0.00,,,0.00,WeatherCatV1.14B232,2013-07-07 10:59:00,
2013-07-07 04:04:00,54.8,54.0,29.80,West,260,6.0,13.0,97,0.00,,,0.00,WeatherCatV1.14B232,2013-07-07 11:04:00,
2013-07-07 04:09:00,54.7,53.9,29.80,WSW,255,10.0,15.0,97,0.00,,,0.00,WeatherCatV1.14B232,2013-07-07 11:09:00,
2013-07-07 04:14:00,54.7,53.9,29.80,WSW,248,12.0,14.0,97,0.00,,,0.00,WeatherCatV1.14B232,2013-07-07 11:14:00,
2013-07-07 04:19:00,54.6,53.8,29.80,SW,229,12.0,12.0,97,0.00,,,0.00,WeatherCatV1.14B232,2013-07-07 11:19:00,
2013-07-07 04:24:00,54.6,53.8,29.80,WSW,244,9.0,11.0,97,0.00,,,0.00,WeatherCatV1.14B232,2013-07-07 11:24:00,
2013-07-07 04:29:00,54.5,53.7,29.80,WSW,240,10.0,10.0,97,0.00,,,0.00,WeatherCatV1.14B232,2013-07-07 11:29:00,
2013-07-07 04:34:00,54.5,53.7,29.80,WSW,252,7.0,11.0,97,0.00,,,0.00,WeatherCatV1.14B232,2013-07-07 11:34:00,
2013-07-07 04:39:00,54.5,53.7,29.80,WSW,258,11.0,12.0,97,0.00,,,0.00,WeatherCatV1.14B232,2013-07-07 11:39:00,
2013-07-07 04:44:00,54.5,53.7,29.80,WSW,238,5.0,11.0,97,0.00,,,0.00,WeatherCatV1.14B232,2013-07-07 11:44:00,
2013-07-07 04:49:00,54.5,53.7,29.80,West,262,8.0,10.0,97,0.00,,,0.00,WeatherCatV1.14B232,2013-07-07 11:49:00,
2013-07-07 04:54:00,54.5,53.4,29.80,WNW,286,7.0,13.0,96,0.00,,,0.00,WeatherCatV1.14B232,2013-07-07 11:54:00,
2013-07-07 04:59:00,54.6,53.8,29.80,WSW,252,3.0,10.0,97,0.00,,,0.00,WeatherCatV1.14B232,2013-07-07 11:59:00,
2013-07-07 05:04:00,54.6,53.5,29.80,WSW,257,7.0,14.0,96,0.00,,,0.00,WeatherCatV1.14B232,2013-07-07 12:04:00,
2013-07-07 05:09:00,54.6,53.5,29.80,WSW,257,7.0,11.0,96,0.00,,,0.00,WeatherCatV1.14B232,2013-07-07 12:09:00,
2013-07-07 05:14:00,54.5,53.4,29.80,WSW,242,8.0,10.0,96,0.00,,,0.00,WeatherCatV1.14B232,2013-07-07 12:14:00,
2013-07-07 05:19:00,54.4,53.3,29.81,West,269,6.0,10.0,96,0.00,,,0.00,WeatherCatV1.14B232,2013-07-07 12:19:00,
2013-07-07 05:24:00,54.4,53.3,29.80,WSW,255,6.0,12.0,96,0.00,,,0.00,WeatherCatV1.14B232,2013-07-07 12:24:00,
2013-07-07 05:29:00,54.5,53.4,29.81,WSW,252,8.0,12.0,96,0.00,,,0.00,WeatherCatV1.14B232,2013-07-07 12:29:00,
2013-07-07 05:34:00,54.5,53.4,29.81,WSW,248,11.0,13.0,96,0.00,,,0.00,WeatherCatV1.14B232,2013-07-07 12:34:00,
2013-07-07 05:39:00,54.5,53.4,29.81,WSW,244,5.0,13.0,96,0.00,,,0.00,WeatherCatV1.14B232,2013-07-07 12:39:00,
2013-07-07 05:44:00,54.5,53.4,29.81,WSW,253,7.0,13.0,96,0.00,,,0.00,WeatherCatV1.14B232,2013-07-07 12:44:00,
2013-07-07 05:49:00,54.6,53.5,29.81,SW,224,9.0,11.0,96,0.00,,,0.00,WeatherCatV1.14B232,2013-07-07 12:49:00,
2013-07-07 05:54:00,54.5,53.4,29.81,WSW,251,7.0,10.0,96,0.00,,,0.00,WeatherCatV1.14B232,2013-07-07 12:54:00,
2013-07-07 05:59:00,54.6,53.5,29.81,SW,235,12.0,12.0,96,0.00,,,0.00,WeatherCatV1.14B232,2013-07-07 12:59:00,
2013-07-07 06:04:00,54.6,53.5,29.81,WSW,245,8.0,13.0,96,0.00,,,0.00,WeatherCatV1.14B232,2013-07-07 13:04:00,
2013-07-07 06:09:00,54.5,53.4,29.82,WSW,249,8.0,12.0,96,0.00,,,0.00,WeatherCatV1.14B232,2013-07-07 13:09:00,
2013-07-07 06:14:00,54.5,53.4,29.82,WSW,257,6.0,10.0,96,0.00,,,0.00,WeatherCatV1.14B232,2013-07-07 13:14:00,
2013-07-07 06:19:00,54.6,53.5,29.82,WSW,252,7.0,8.0,96,0.00,,,0.00,WeatherCatV1.14B232,2013-07-07 13:19:00,
2013-07-07 06:24:00,54.7,53.6,29.82,SW,229,6.0,11.0,96,0.00,,,0.00,WeatherCatV1.14B232,2013-07-07 13:24:00,
2013-07-07 06:29:00,54.8,53.7,29.82,WSW,254,6.0,11.0,96,0.00,,,0.00,WeatherCatV1.14B232,2013-07-07 13:29:00,
2013-07-07 06:34:00,54.8,53.7,29.82,SSW,205,6.0,7.0,96,0.00,,,0.00,WeatherCatV1.14B232,2013-07-07 13:34:00,
2013-07-07 06:39:00,54.9,53.8,29.82,WSW,258,4.0,8.0,96,0.00,,,0.00,WeatherCatV1.14B232,2013-07-07 13:39:00,
2013-07-07 06:44:00,55.0,53.9,29.82,SSW,203,8.0,10.0,96,0.00,,,0.00,WeatherCatV1.14B232,2013-07-07 13:44:00,
2013-07-07 06:49:00,55.1,54.0,29.82,WSW,244,7.0,10.0,96,0.00,,,0.00,WeatherCatV1.14B232,2013-07-07 13:49:00,
2013-07-07 06:54:00,55.1,54.0,29.82,WSW,249,5.0,8.0,96,0.00,,,0.00,WeatherCatV1.14B232,2013-07-07 13:54:00,
2013-07-07 06:59:00,55.3,54.2,29.82,WSW,245,4.0,7.0,96,0.00,,,0.00,WeatherCatV1.14B232,2013-07-07 13:59:00,
2013-07-07 07:04:00,55.3,53.9,29.83,SW,220,4.0,11.0,95,0.00,,,0.00,WeatherCatV1.14B232,2013-07-07 14:04:00,
2013-07-07 07:09:00,55.2,53.8,29.83,WSW,243,7.0,10.0,95,0.00,,,0.00,WeatherCatV1.14B232,2013-07-07 14:09:00,
2013-07-07 07:14:00,55.3,53.9,29.83,SW,236,9.0,11.0,95,0.00,,,0.00,WeatherCatV1.14B232,2013-07-07 14:14:00,
2013-07-07 07:19:00,55.3,53.9,29.83,WSW,245,4.0,11.0,95,0.00,,,0.00,WeatherCatV1.14B232,2013-07-07 14:19:00,
2013-07-07 07:24:00,55.3,53.9,29.83,WSW,255,7.0,9.0,95,0.00,,,0.00,WeatherCatV1.14B232,2013-07-07 14:24:00,
2013-07-07 07:29:00,55.4,54.0,29.83,WSW,256,6.0,13.0,95,0.00,,,0.00,WeatherCatV1.14B232,2013-07-07 14:29:00,
2013-07-07 07:34:00,55.3,53.6,29.83,South,181,7.0,11.0,94,0.00,,,0.00,WeatherCatV1.14B232,2013-07-07 14:34:00,
2013-07-07 07:39:00,55.4,54.0,29.83,West,267,4.0,8.0,95,0.00,,,0.00,WeatherCatV1.14B232,2013-07-07 14:39:00,
2013-07-07 07:44:00,55.5,54.1,29.83,SSW,213,4.0,11.0,95,0.00,,,0.00,WeatherCatV1.14B232,2013-07-07 14:44:00,
2013-07-07 07:49:00,55.6,54.2,29.83,SW,229,6.0,7.0,95,0.00,,,0.00,WeatherCatV1.14B232,2013-07-07 14:49:00,
2013-07-07 07:54:00,55.6,53.9,29.84,WSW,245,5.0,11.0,94,0.00,,,0.00,WeatherCatV1.14B232,2013-07-07 14:54:00,
2013-07-07 07:59:00,55.6,54.2,29.84,West,262,7.0,9.0,95,0.00,,,0.00,WeatherCatV1.14B232,2013-07-07 14:59:00,
2013-07-07 08:04:00,55.6,54.2,29.84,West,264,7.0,12.0,95,0.00,,,0.00,WeatherCatV1.14B232,2013-07-07 15:04:00,
2013-07-07 08:09:00,55.6,53.9,29.84,WSW,245,7.0,12.0,94,0.00,,,0.00,WeatherCatV1.14B232,2013-07-07 15:09:00,
2013-07-07 08:14:00,55.5,53.8,29.84,West,264,4.0,7.0,94,0.00,,,0.00,WeatherCatV1.14B232,2013-07-07 15:14:00,
2013-07-07 08:19:00,55.6,53.9,29.84,West,264,7.0,10.0,94,0.00,,,0.00,WeatherCatV1.14B232,2013-07-07 15:19:00,
2013-07-07 08:24:00,55.6,54.2,29.84,West,259,5.0,11.0,95,0.00,,,0.00,WeatherCatV1.14B232,2013-07-07 15:24:00,
2013-07-07 08:29:00,55.7,54.3,29.84,SW,221,7.0,10.0,95,0.00,,,0.00,WeatherCatV1.14B232,2013-07-07 15:29:00,
2013-07-07 08:34:00,55.7,54.0,29.84,SW,234,10.0,12.0,94,0.00,,,0.00,WeatherCatV1.14B232,2013-07-07 15:34:00,
2013-07-07 08:39:00,55.7,54.0,29.85,WSW,254,4.0,10.0,94,0.00,,,0.00,WeatherCatV1.14B232,2013-07-07 15:39:00,
2013-07-07 08:44:00,55.7,54.0,29.85,West,275,4.0,8.0,94,0.00,,,0.00,WeatherCatV1.14B232,2013-07-07 15:44:00,
2013-07-07 08:49:00,55.9,54.5,29.85,SW,236,9.0,9.0,95,0.00,,,0.00,WeatherCatV1.14B232,2013-07-07 15:49:00,
2013-07-07 08:54:00,55.9,54.2,29.85,WSW,249,8.0,12.0,94,0.00,,,0.00,WeatherCatV1.14B232,2013-07-07 15:54:00,
2013-07-07 08:59:00,55.7,54.0,29.85,West,271,7.0,12.0,94,0.00,,,0.00,WeatherCatV1.14B232,2013-07-07 15:59:00,
2013-07-07 09:04:00,55.7,53.7,29.85,West,265,7.0,10.0,93,0.00,,,0.00,WeatherCatV1.14B232,2013-07-07 16:04:00,
2013-07-07 09:09:00,55.9,54.2,29.85,WSW,243,11.0,15.0,94,0.00,,,0.00,WeatherCatV1.14B232,2013-07-07 16:09:00,
2013-07-07 09:15:00,55.9,53.9,29.85,WSW,245,10.0,12.0,93,0.00,,,0.00,WeatherCatV1.14B232,2013-07-07 16:15:00,
2013-07-07 09:20:00,56.0,54.0,29.85,West,262,9.0,13.0,93,0.00,,,0.00,WeatherCatV1.14B232,2013-07-07 16:20:00,
2013-07-07 09:25:00,56.1,54.1,29.85,West,263,8.0,10.0,93,0.00,,,0.00,WeatherCatV1.14B232,2013-07-07 16:25:00,
2013-07-07 09:30:00,56.2,54.2,29.85,West,262,13.0,13.0,93,0.00,,,0.00,WeatherCatV1.14B232,2013-07-07 16:30:00,
2013-07-07 09:35:00,56.5,54.5,29.85,SW,217,4.0,13.0,93,0.00,,,0.00,WeatherCatV1.14B232,2013-07-07 16:35:00,
2013-07-07 09:40:00,56.6,54.6,29.85,WSW,253,7.0,12.0,93,0.00,,,0.00,WeatherCatV1.14B232,2013-07-07 16:40:00,
2013-07-07 09:45:00,56.6,54.6,29.85,West,261,7.0,12.0,93,0.00,,,0.00,WeatherCatV1.14B232,2013-07-07 16:45:00,
2013-07-07 09:50:00,57.0,54.7,29.85,WSW,257,8.0,10.0,92,0.00,,,0.00,WeatherCatV1.14B232,2013-07-07 16:50:00,
2013-07-07 09:55:00,57.1,54.8,29.85,WSW,249,8.0,11.0,92,0.00,,,0.00,WeatherCatV1.14B232,2013-07-07 16:55:00,
2013-07-07 10:00:00,56.9,54.6,29.85,West,260,8.0,8.0,92,0.00,,,0.00,WeatherCatV1.14B232,2013-07-07 17:00:00,
2013-07-07 10:05:00,57.0,54.7,29.85,WSW,243,6.0,12.0,92,0.00,,,0.00,WeatherCatV1.14B232,2013-07-07 17:05:00,
2013-07-07 10:10:00,57.5,54.9,29.85,West,259,5.0,10.0,91,0.00,,,0.00,WeatherCatV1.14B232,2013-07-07 17:10:00,
2013-07-07 10:15:00,57.4,54.5,29.85,West,259,6.0,11.0,90,0.00,,,0.00,WeatherCatV1.14B232,2013-07-07 17:15:00,
2013-07-07 10:20:00,57.7,55.1,29.84,WSW,243,7.0,11.0,91,0.00,,,0.00,WeatherCatV1.14B232,2013-07-07 17:20:00,
2013-07-07 10:25:00,57.9,55.0,29.85,West,271,7.0,11.0,90,0.00,,,0.00,WeatherCatV1.14B232,2013-07-07 17:25:00,
2013-07-07 10:30:00,58.2,55.3,29.85,SW,221,5.0,10.0,90,0.00,,,0.00,WeatherCatV1.14B232,2013-07-07 17:30:00,
2013-07-07 10:35:00,58.7,55.5,29.85,SSW,206,5.0,8.0,89,0.00,,,0.00,WeatherCatV1.14B232,2013-07-07 17:35:00,
2013-07-07 10:40:00,59.0,55.8,29.85,West,260,8.0,12.0,89,0.00,,,0.00,WeatherCatV1.14B232,2013-07-07 17:40:00,
2013-07-07 10:45:00,58.5,55.0,29.85,West,260,6.0,13.0,88,0.00,,,0.00,WeatherCatV1.14B232,2013-07-07 17:45:00,
2013-07-07 10:50:00,58.5,55.3,29.85,West,263,8.0,12.0,89,0.00,,,0.00,WeatherCatV1.14B232,2013-07-07 17:50:00,
2013-07-07 10:55:00,58.6,55.4,29.85,West,259,9.0,14.0,89,0.00,,,0.00,WeatherCatV1.14B232,2013-07-07 17:55:00,
2013-07-07 11:00:00,58.7,55.5,29.85,WSW,254,6.0,12.0,89,0.00,,,0.00,WeatherCatV1.14B232,2013-07-07 18:00:00,
2013-07-07 11:05:00,58.9,55.3,29.86,WSW,254,9.0,12.0,88,0.00,,,0.00,WeatherCatV1.14B232,2013-07-07 18:05:00,
2013-07-07 11:10:00,59.1,55.9,29.86,WSW,254,7.0,11.0,89,0.00,,,0.00,WeatherCatV1.14B232,2013-07-07 18:10:00,
2013-07-07 11:15:00,59.3,55.7,29.85,West,263,8.0,12.0,88,0.00,,,0.00,WeatherCatV1.14B232,2013-07-07 18:15:00,
2013-07-07 11:20:00,59.4,55.8,29.85,WSW,243,7.0,13.0,88,0.00,,,0.00,WeatherCatV1.14B232,2013-07-07 18:20:00,
2013-07-07 11:25:00,59.7,56.1,29.85,SW,232,6.0,12.0,88,0.00,,,0.00,WeatherCatV1.14B232,2013-07-07 18:25:00,
2013-07-07 11:30:00,59.8,55.9,29.85,West,262,10.0,14.0,87,0.00,,,0.00,WeatherCatV1.14B232,2013-07-07 18:30:00,
2013-07-07 11:35:00,59.9,55.7,29.85,WSW,243,7.0,13.0,86,0.00,,,0.00,WeatherCatV1.14B232,2013-07-07 18:35:00,
2013-07-07 11:40:00,60.3,56.1,29.85,West,268,6.0,9.0,86,0.00,,,0.00,WeatherCatV1.14B232,2013-07-07 18:40:00,
2013-07-07 11:45:00,60.4,56.2,29.85,WSW,255,10.0,14.0,86,0.00,,,0.00,WeatherCatV1.14B232,2013-07-07 18:45:00,
2013-07-07 11:50:00,60.6,56.1,29.85,SW,222,8.0,15.0,85,0.00,,,0.00,WeatherCatV1.14B232,2013-07-07 18:50:00,
2013-07-07 11:55:00,61.3,56.4,29.85,WSW,255,8.0,12.0,84,0.00,,,0.00,WeatherCatV1.14B232,2013-07-07 18:55:00,
2013-07-07 12:00:00,61.2,56.3,29.85,WSW,250,9.0,13.0,84,0.00,,,0.00,WeatherCatV1.14B232,2013-07-07 19:00:00,
2013-07-07 12:05:00,61.2,56.3,29.85,SW,236,10.0,13.0,84,0.00,,,0.00,WeatherCatV1.14B232,2013-07-07 19:05:00,
2013-07-07 12:10:00,61.5,56.6,29.85,WSW,255,11.0,16.0,84,0.00,,,0.00,WeatherCatV1.14B232,2013-07-07 19:10:00,
2013-07-07 12:15:00,61.2,56.0,29.85,WSW,248,7.0,14.0,83,0.00,,,0.00,WeatherCatV1.14B232,2013-07-07 19:15:00,
2013-07-07 12:20:00,61.4,55.9,29.85,WSW,240,11.0,14.0,82,0.00,,,0.00,WeatherCatV1.14B232,2013-07-07 19:20:00,
2013-07-07 12:25:00,61.6,56.7,29.85,WSW,237,10.0,13.0,84,0.00,,,0.00,WeatherCatV1.14B232,2013-07-07 19:25:00,
2013-07-07 12:30:00,61.7,56.5,29.85,WSW,258,7.0,18.0,83,0.00,,,0.00,WeatherCatV1.14B232,2013-07-07 19:30:00,
2013-07-07 12:35:00,61.6,56.4,29.85,WSW,240,13.0,20.0,83,0.00,,,0.00,WeatherCatV1.14B232,2013-07-07 19:35:00,
2013-07-07 12:40:00,62.0,56.4,29.85,South,185,7.0,15.0,82,0.00,,,0.00,WeatherCatV1.14B232,2013-07-07 19:40:00,
2013-07-07 12:45:00,62.5,56.9,29.85,West,274,8.0,15.0,82,0.00,,,0.00,WeatherCatV1.14B232,2013-07-07 19:45:00,
2013-07-07 12:50:00,62.7,56.8,29.85,West,259,10.0,16.0,81,0.00,,,0.00,WeatherCatV1.14B232,2013-07-07 19:50:00,
2013-07-07 12:55:00,62.5,56.9,29.84,WSW,255,15.0,17.0,82,0.00,,,0.00,WeatherCatV1.14B232,2013-07-07 19:55:00,
2013-07-07 13:00:00,62.2,56.3,29.84,West,263,9.0,15.0,81,0.00,,,0.00,WeatherCatV1.14B232,2013-07-07 20:00:00,
2013-07-07 13:05:00,62.1,56.2,29.84,WSW,246,11.0,16.0,81,0.00,,,0.00,WeatherCatV1.14B232,2013-07-07 20:05:00,
2013-07-07 13:06:00,62.4,56.5,29.84,West,261,11.0,15.0,81,0.00,,,0.00,WeatherCatV1.14B232,2013-07-07 20:06:00,
2013-07-07 13:10:00,62.2,56.3,29.84,WSW,248,11.0,20.0,81,0.00,,,0.00,WeatherCatV1.14B232,2013-07-07 20:10:00,
2013-07-07 13:15:00,62.2,56.3,29.84,WSW,248,11.0,20.0,81,0.00,,,0.00,WeatherCatV1.14B232,2013-07-07 20:15:00,
2013-07-07 13:20:00,62.2,56.3,29.84,WSW,248,11.0,20.0,81,0.00,,,0.00,WeatherCatV1.14B232,2013-07-07 20:20:00,
2013-07-07 13:25:00,62.2,56.3,29.84,WSW,248,11.0,20.0,81,0.00,,,0.00,WeatherCatV1.14B232,2013-07-07 20:25:00,
2013-07-07 13:30:00,62.2,56.3,29.84,WSW,248,11.0,20.0,81,0.00,,,0.00,WeatherCatV1.14B232,2013-07-07 20:30:00,
2013-07-07 13:35:00,62.2,56.3,29.84,WSW,248,11.0,20.0,81,0.00,,,0.00,WeatherCatV1.14B232,2013-07-07 20:35:00,
2013-07-07 13:40:00,63.8,56.8,29.84,WSW,248,10.0,18.0,78,0.00,,,0.00,WeatherCatV1.14B232,2013-07-07 20:40:00,
2013-07-07 13:45:00,63.8,56.8,29.84,WSW,248,10.0,18.0,78,0.00,,,0.00,WeatherCatV1.14B232,2013-07-07 20:45:00,
2013-07-07 13:50:00,63.8,56.8,29.84,WSW,248,10.0,18.0,78,0.00,,,0.00,WeatherCatV1.14B232,2013-07-07 20:50:00,
2013-07-07 13:55:00,63.8,56.8,29.84,WSW,248,10.0,18.0,78,0.00,,,0.00,WeatherCatV1.14B232,2013-07-07 20:55:00,
2013-07-07 14:00:00,63.8,56.8,29.84,WSW,248,10.0,18.0,78,0.00,,,0.00,WeatherCatV1.14B232,2013-07-07 21:00:00,
2013-07-07 14:05:00,63.8,56.8,29.84,WSW,248,10.0,18.0,78,0.00,,,0.00,WeatherCatV1.14B232,2013-07-07 21:05:00,
2013-07-07 14:10:00,63.9,57.3,29.83,WSW,248,11.0,18.0,79,0.00,,,0.00,WeatherCatV1.14B232,2013-07-07 21:10:00,
2013-07-07 14:15:00,63.9,57.3,29.83,WSW,248,11.0,18.0,79,0.00,,,0.00,WeatherCatV1.14B232,2013-07-07 21:15:00,
2013-07-07 14:20:00,63.9,57.3,29.83,WSW,248,11.0,18.0,79,0.00,,,0.00,WeatherCatV1.14B232,2013-07-07 21:20:00,
2013-07-07 14:25:00,63.9,57.3,29.83,WSW,248,11.0,18.0,79,0.00,,,0.00,WeatherCatV1.14B232,2013-07-07 21:25:00,
2013-07-07 14:30:00,63.9,57.3,29.83,WSW,248,11.0,18.0,79,0.00,,,0.00,WeatherCatV1.14B232,2013-07-07 21:30:00,
2013-07-07 14:35:00,63.9,57.3,29.83,WSW,248,11.0,18.0,79,0.00,,,0.00,WeatherCatV1.14B232,2013-07-07 21:35:00,
2013-07-07 14:40:00,62.8,56.5,29.83,WSW,248,14.0,23.0,80,0.00,,,0.00,WeatherCatV1.14B232,2013-07-07 21:40:00,
2013-07-07 14:45:00,62.8,56.5,29.83,WSW,248,14.0,23.0,80,0.00,,,0.00,WeatherCatV1.14B232,2013-07-07 21:45:00,
2013-07-07 14:50:00,62.8,56.5,29.83,WSW,248,14.0,23.0,80,0.00,,,0.00,WeatherCatV1.14B232,2013-07-07 21:50:00,
2013-07-07 14:55:00,62.8,56.5,29.83,WSW,248,14.0,23.0,80,0.00,,,0.00,WeatherCatV1.14B232,2013-07-07 21:55:00,
2013-07-07 15:00:00,62.8,56.5,29.83,WSW,248,14.0,23.0,80,0.00,,,0.00,WeatherCatV1.14B232,2013-07-07 22:00:00,
2013-07-07 15:05:00,62.8,56.5,29.83,WSW,248,14.0,23.0,80,0.00,,,0.00,WeatherCatV1.14B232,2013-07-07 22:05:00,
2013-07-07 15:10:00,62.2,56.3,29.83,WSW,248,14.0,22.0,81,0.00,,,0.00,WeatherCatV1.14B232,2013-07-07 22:10:00,
2013-07-07 15:15:00,62.2,56.3,29.83,WSW,248,14.0,22.0,81,0.00,,,0.00,WeatherCatV1.14B232,2013-07-07 22:15:00,
2013-07-07 15:20:00,62.2,56.3,29.83,WSW,248,14.0,22.0,81,0.00,,,0.00,WeatherCatV1.14B232,2013-07-07 22:20:00,
2013-07-07 15:25:00,62.2,56.3,29.83,WSW,248,14.0,22.0,81,0.00,,,0.00,WeatherCatV1.14B232,2013-07-07 22:25:00,
2013-07-07 15:30:00,62.2,56.3,29.83,WSW,248,14.0,22.0,81,0.00,,,0.00,WeatherCatV1.14B232,2013-07-07 22:30:00,
2013-07-07 15:35:00,62.2,56.3,29.83,WSW,248,14.0,22.0,81,0.00,,,0.00,WeatherCatV1.14B232,2013-07-07 22:35:00,
2013-07-07 15:40:00,61.8,56.2,29.83,WSW,248,14.0,21.0,82,0.00,,,0.00,WeatherCatV1.14B232,2013-07-07 22:40:00,
2013-07-07 15:45:00,61.8,56.2,29.83,WSW,248,14.0,21.0,82,0.00,,,0.00,WeatherCatV1.14B232,2013-07-07 22:45:00,
2013-07-07 15:50:00,61.8,56.2,29.83,WSW,248,14.0,21.0,82,0.00,,,0.00,WeatherCatV1.14B232,2013-07-07 22:50:00,
2013-07-07 15:55:00,61.8,56.2,29.83,WSW,248,14.0,21.0,82,0.00,,,0.00,WeatherCatV1.14B232,2013-07-07 22:55:00,
2013-07-07 16:00:00,61.8,56.2,29.83,WSW,248,14.0,21.0,82,0.00,,,0.00,WeatherCatV1.14B232,2013-07-07 23:00:00,
2013-07-07 16:05:00,61.8,56.2,29.83,WSW,248,14.0,21.0,82,0.00,,,0.00,WeatherCatV1.14B232,2013-07-07 23:05:00,
2013-07-07 16:10:00,62.0,56.4,29.82,WSW,248,16.0,24.0,82,0.00,,,0.00,WeatherCatV1.14B232,2013-07-07 23:10:00,
2013-07-07 16:15:00,62.0,56.4,29.82,WSW,248,16.0,24.0,82,0.00,,,0.00,WeatherCatV1.14B232,2013-07-07 23:15:00,
2013-07-07 16:20:00,62.0,56.4,29.82,WSW,248,16.0,24.0,82,0.00,,,0.00,WeatherCatV1.14B232,2013-07-07 23:20:00,
2013-07-07 16:25:00,62.0,56.4,29.82,WSW,248,16.0,24.0,82,0.00,,,0.00,WeatherCatV1.14B232,2013-07-07 23:25:00,
2013-07-07 16:30:00,62.0,56.4,29.82,WSW,248,16.0,24.0,82,0.00,,,0.00,WeatherCatV1.14B232,2013-07-07 23:30:00,
2013-07-07 16:35:00,62.0,56.4,29.82,WSW,248,16.0,24.0,82,0.00,,,0.00,WeatherCatV1.14B232,2013-07-07 23:35:00,
2013-07-07 16:40:00,61.0,56.1,29.81,WSW,248,17.0,26.0,84,0.00,,,0.00,WeatherCatV1.14B232,2013-07-07 23:40:00,
2013-07-07 16:45:00,61.0,56.1,29.81,WSW,248,17.0,26.0,84,0.00,,,0.00,WeatherCatV1.14B232,2013-07-07 23:45:00,
2013-07-07 16:50:00,61.0,56.1,29.81,WSW,248,17.0,26.0,84,0.00,,,0.00,WeatherCatV1.14B232,2013-07-07 23:50:00,
2013-07-07 16:55:00,61.0,56.1,29.81,WSW,248,17.0,26.0,84,0.00,,,0.00,WeatherCatV1.14B232,2013-07-07 23:55:00,
2013-07-07 17:00:00,61.0,56.1,29.81,WSW,248,17.0,26.0,84,0.00,,,0.00,WeatherCatV1.14B232,2013-07-08 00:00:00,
2013-07-07 17:05:00,61.0,56.1,29.81,WSW,248,17.0,26.0,84,0.00,,,0.00,WeatherCatV1.14B232,2013-07-08 00:05:00,
2013-07-07 17:10:00,60.7,55.8,29.80,WSW,248,19.0,29.0,84,0.00,,,0.00,WeatherCatV1.14B232,2013-07-08 00:10:00,
2013-07-07 17:15:00,60.7,55.8,29.80,WSW,248,19.0,29.0,84,0.00,,,0.00,WeatherCatV1.14B232,2013-07-08 00:15:00,
2013-07-07 17:20:00,60.7,55.8,29.80,WSW,248,19.0,29.0,84,0.00,,,0.00,WeatherCatV1.14B232,2013-07-08 00:20:00,
2013-07-07 17:25:00,60.7,55.8,29.80,WSW,248,19.0,29.0,84,0.00,,,0.00,WeatherCatV1.14B232,2013-07-08 00:25:00,
2013-07-07 17:30:00,60.7,55.8,29.80,WSW,248,19.0,29.0,84,0.00,,,0.00,WeatherCatV1.14B232,2013-07-08 00:30:00,
2013-07-07 17:35:00,60.7,55.8,29.80,WSW,248,19.0,29.0,84,0.00,,,0.00,WeatherCatV1.14B232,2013-07-08 00:35:00,
2013-07-07 17:40:00,60.4,56.2,29.80,WSW,248,18.0,27.0,86,0.00,,,0.00,WeatherCatV1.14B232,2013-07-08 00:40:00,
2013-07-07 17:45:00,60.4,56.2,29.80,WSW,248,18.0,27.0,86,0.00,,,0.00,WeatherCatV1.14B232,2013-07-08 00:45:00,
2013-07-07 17:50:00,60.4,56.2,29.80,WSW,248,18.0,27.0,86,0.00,,,0.00,WeatherCatV1.14B232,2013-07-08 00:50:00,
2013-07-07 17:55:00,60.4,56.2,29.80,WSW,248,18.0,27.0,86,0.00,,,0.00,WeatherCatV1.14B232,2013-07-08 00:55:00,
2013-07-07 18:00:00,60.4,56.2,29.80,WSW,248,18.0,27.0,86,0.00,,,0.00,WeatherCatV1.14B232,2013-07-08 01:00:00,
2013-07-07 18:05:00,60.4,56.2,29.80,WSW,248,18.0,27.0,86,0.00,,,0.00,WeatherCatV1.14B232,2013-07-08 01:05:00,
2013-07-07 18:10:00,59.8,56.2,29.80,WSW,248,17.0,25.0,88,0.00,,,0.00,WeatherCatV1.14B232,2013-07-08 01:10:00,
2013-07-07 18:15:00,59.8,56.2,29.80,WSW,248,17.0,25.0,88,0.00,,,0.00,WeatherCatV1.14B232,2013-07-08 01:15:00,
2013-07-07 18:20:00,59.8,56.2,29.80,WSW,248,17.0,25.0,88,0.00,,,0.00,WeatherCatV1.14B232,2013-07-08 01:20:00,
2013-07-07 18:25:00,59.8,56.2,29.80,WSW,248,17.0,25.0,88,0.00,,,0.00,WeatherCatV1.14B232,2013-07-08 01:25:00,
2013-07-07 18:30:00,59.8,56.2,29.80,WSW,248,17.0,25.0,88,0.00,,,0.00,WeatherCatV1.14B232,2013-07-08 01:30:00,
2013-07-07 18:35:00,59.8,56.2,29.80,WSW,248,17.0,25.0,88,0.00,,,0.00,WeatherCatV1.14B232,2013-07-08 01:35:00,
2013-07-07 18:40:00,59.2,56.3,29.80,WSW,248,16.0,24.0,90,0.00,,,0.00,WeatherCatV1.14B232,2013-07-08 01:40:00,
2013-07-07 18:45:00,59.2,56.3,29.80,WSW,248,16.0,24.0,90,0.00,,,0.00,WeatherCatV1.14B232,2013-07-08 01:45:00,
2013-07-07 18:50:00,59.2,56.3,29.80,WSW,248,16.0,24.0,90,0.00,,,0.00,WeatherCatV1.14B232,2013-07-08 01:50:00,
2013-07-07 18:55:00,59.2,56.3,29.80,WSW,248,16.0,24.0,90,0.00,,,0.00,WeatherCatV1.14B232,2013-07-08 01:55:00,
2013-07-07 19:00:00,59.2,56.3,29.80,WSW,248,16.0,24.0,90,0.00,,,0.00,WeatherCatV1.14B232,2013-07-08 02:00:00,
2013-07-07 19:05:00,59.2,56.3,29.80,WSW,248,16.0,24.0,90,0.00,,,0.00,WeatherCatV1.14B232,2013-07-08 02:05:00,
2013-07-07 19:10:00,58.0,55.4,29.81,WSW,248,15.0,22.0,91,0.00,,,0.00,WeatherCatV1.14B232,2013-07-08 02:10:00,
2013-07-07 19:15:00,58.0,55.4,29.81,WSW,248,15.0,22.0,91,0.00,,,0.00,WeatherCatV1.14B232,2013-07-08 02:15:00,
2013-07-07 19:20:00,58.0,55.4,29.81,WSW,248,15.0,22.0,91,0.00,,,0.00,WeatherCatV1.14B232,2013-07-08 02:20:00,
2013-07-07 19:25:00,58.0,55.4,29.81,WSW,248,15.0,22.0,91,0.00,,,0.00,WeatherCatV1.14B232,2013-07-08 02:25:00,
2013-07-07 19:30:00,58.0,55.4,29.81,WSW,248,15.0,22.0,91,0.00,,,0.00,WeatherCatV1.14B232,2013-07-08 02:30:00,
2013-07-07 19:35:00,58.0,55.4,29.81,WSW,248,15.0,22.0,91,0.00,,,0.00,WeatherCatV1.14B232,2013-07-08 02:35:00,
2013-07-07 19:40:00,57.2,55.2,29.82,WSW,248,15.0,22.0,93,0.00,,,0.00,WeatherCatV1.14B232,2013-07-08 02:40:00,
2013-07-07 19:45:00,57.2,55.2,29.82,WSW,248,15.0,22.0,93,0.00,,,0.00,WeatherCatV1.14B232,2013-07-08 02:45:00,
2013-07-07 19:50:00,57.2,55.2,29.82,WSW,248,15.0,22.0,93,0.00,,,0.00,WeatherCatV1.14B232,2013-07-08 02:50:00,
2013-07-07 19:55:00,57.2,55.2,29.82,WSW,248,15.0,22.0,93,0.00,,,0.00,WeatherCatV1.14B232,2013-07-08 02:55:00,
2013-07-07 20:00:00,57.2,55.2,29.82,WSW,248,15.0,22.0,93,0.00,,,0.00,WeatherCatV1.14B232,2013-07-08 03:00:00,
2013-07-07 20:05:00,57.2,55.2,29.82,WSW,248,15.0,22.0,93,0.00,,,0.00,WeatherCatV1.14B232,2013-07-08 03:05:00,
2013-07-07 20:10:00,56.6,55.2,29.82,WSW,248,15.0,23.0,95,0.00,,,0.00,WeatherCatV1.14B232,2013-07-08 03:10:00,
2013-07-07 20:15:00,56.6,55.2,29.82,WSW,248,15.0,23.0,95,0.00,,,0.00,WeatherCatV1.14B232,2013-07-08 03:15:00,
2013-07-07 20:20:00,56.6,55.2,29.82,WSW,248,15.0,23.0,95,0.00,,,0.00,WeatherCatV1.14B232,2013-07-08 03:20:00,
2013-07-07 20:25:00,56.6,55.2,29.82,WSW,248,15.0,23.0,95,0.00,,,0.00,WeatherCatV1.14B232,2013-07-08 03:25:00,
2013-07-07 20:30:00,56.6,55.2,29.82,WSW,248,15.0,23.0,95,0.00,,,0.00,WeatherCatV1.14B232,2013-07-08 03:30:00,
2013-07-07 20:35:00,56.6,55.2,29.82,WSW,248,15.0,23.0,95,0.00,,,0.00,WeatherCatV1.14B232,2013-07-08 03:35:00,
2013-07-07 20:40:00,56.4,55.0,29.83,WSW,248,15.0,23.0,95,0.00,,,0.00,WeatherCatV1.14B232,2013-07-08 03:40:00,
2013-07-07 20:45:00,56.4,55.0,29.83,WSW,248,15.0,23.0,95,0.00,,,0.00,WeatherCatV1.14B232,2013-07-08 03:45:00,
2013-07-07 20:50:00,56.4,55.0,29.83,WSW,248,15.0,23.0,95,0.00,,,0.00,WeatherCatV1.14B232,2013-07-08 03:50:00,
2013-07-07 20:55:00,56.4,55.0,29.83,WSW,248,15.0,23.0,95,0.00,,,0.00,WeatherCatV1.14B232,2013-07-08 03:55:00,
2013-07-07 21:00:00,56.4,55.0,29.83,WSW,248,15.0,23.0,95,0.00,,,0.00,WeatherCatV1.14B232,2013-07-08 04:00:00,
2013-07-07 21:05:00,56.4,55.0,29.83,WSW,248,15.0,23.0,95,0.00,,,0.00,WeatherCatV1.14B232,2013-07-08 04:05:00,
2013-07-07 21:10:00,56.0,54.6,29.83,WSW,248,14.0,20.0,95,0.00,,,0.00,WeatherCatV1.14B232,2013-07-08 04:10:00,
2013-07-07 21:15:00,56.0,54.6,29.83,WSW,248,14.0,20.0,95,0.00,,,0.00,WeatherCatV1.14B232,2013-07-08 04:15:00,
2013-07-07 21:20:00,56.0,54.6,29.83,WSW,248,14.0,20.0,95,0.00,,,0.00,WeatherCatV1.14B232,2013-07-08 04:20:00,
2013-07-07 21:25:00,56.0,54.6,29.83,WSW,248,14.0,20.0,95,0.00,,,0.00,WeatherCatV1.14B232,2013-07-08 04:25:00,
2013-07-07 21:30:00,56.0,54.6,29.83,WSW,248,14.0,20.0,95,0.00,,,0.00,WeatherCatV1.14B232,2013-07-08 04:30:00,
2013-07-07 21:35:00,56.0,54.6,29.83,WSW,248,14.0,20.0,95,0.00,,,0.00,WeatherCatV1.14B232,2013-07-08 04:35:00,
2013-07-07 21:40:00,55.9,54.5,29.84,WSW,248,16.0,23.0,95,0.00,,,0.00,WeatherCatV1.14B232,2013-07-08 04:40:00,
2013-07-07 21:45:00,55.9,54.5,29.84,WSW,248,16.0,23.0,95,0.00,,,0.00,WeatherCatV1.14B232,2013-07-08 04:45:00,
2013-07-07 21:50:00,55.9,54.5,29.84,WSW,248,16.0,23.0,95,0.00,,,0.00,WeatherCatV1.14B232,2013-07-08 04:50:00,
2013-07-07 21:55:00,55.9,54.5,29.84,WSW,248,16.0,23.0,95,0.00,,,0.00,WeatherCatV1.14B232,2013-07-08 04:55:00,
2013-07-07 22:00:00,55.9,54.5,29.84,WSW,248,16.0,23.0,95,0.00,,,0.00,WeatherCatV1.14B232,2013-07-08 05:00:00,
2013-07-07 22:05:00,55.9,54.5,29.84,WSW,248,16.0,23.0,95,0.00,,,0.00,WeatherCatV1.14B232,2013-07-08 05:05:00,
2013-07-07 22:10:00,55.6,54.5,29.86,WSW,248,12.0,19.0,96,0.00,,,0.00,WeatherCatV1.14B232,2013-07-08 05:10:00,
2013-07-07 22:15:00,55.6,54.5,29.86,WSW,248,12.0,19.0,96,0.00,,,0.00,WeatherCatV1.14B232,2013-07-08 05:15:00,
2013-07-07 22:20:00,55.6,54.5,29.86,WSW,248,12.0,19.0,96,0.00,,,0.00,WeatherCatV1.14B232,2013-07-08 05:20:00,
2013-07-07 22:25:00,55.6,54.5,29.86,WSW,248,12.0,19.0,96,0.00,,,0.00,WeatherCatV1.14B232,2013-07-08 05:25:00,
2013-07-07 22:30:00,55.6,54.5,29.86,WSW,248,12.0,19.0,96,0.00,,,0.00,WeatherCatV1.14B232,2013-07-08 05:30:00,
2013-07-07 22:35:00,55.6,54.5,29.86,WSW,248,12.0,19.0,96,0.00,,,0.00,WeatherCatV1.14B232,2013-07-08 05:35:00,
2013-07-07 22:47:00,55.9,54.8,29.86,WSW,248,14.0,20.0,96,0.00,,,0.00,WeatherCatV1.14B232,2013-07-08 05:47:00,
2013-07-07 22:52:00,56.0,54.9,29.86,SW,217,14.0,16.0,96,0.00,,,0.00,WeatherCatV1.14B232,2013-07-08 05:52:00,
2013-07-07 22:57:00,55.9,54.8,29.86,West,262,13.0,15.0,96,0.00,,,0.00,WeatherCatV1.14B232,2013-07-08 05:57:00,
2013-07-07 23:02:00,55.8,54.7,29.86,WSW,257,15.0,18.0,96,0.00,,,0.00,WeatherCatV1.14B232,2013-07-08 06:02:00,
2013-07-07 23:05:00,55.8,54.7,29.86,WSW,255,11.0,18.0,96,0.00,,,0.00,WeatherCatV1.14B232,2013-07-08 06:05:00,
2013-07-07 23:10:00,55.8,54.7,29.86,WSW,251,15.0,19.0,96,0.00,,,0.00,WeatherCatV1.14B232,2013-07-08 06:10:00,
2013-07-07 23:15:00,55.9,54.8,29.86,SW,232,15.0,18.0,96,0.00,,,0.00,WeatherCatV1.14B232,2013-07-08 06:15:00,
2013-07-07 23:20:00,55.8,54.7,29.86,WSW,245,14.0,18.0,96,0.00,,,0.00,WeatherCatV1.14B232,2013-07-08 06:20:00,
2013-07-07 23:25:00,55.7,54.6,29.87,WSW,256,16.0,20.0,96,0.00,,,0.00,WeatherCatV1.14B232,2013-07-08 06:25:00,
2013-07-07 23:30:00,55.7,54.6,29.87,WSW,252,12.0,20.0,96,0.00,,,0.00,WeatherCatV1.14B232,2013-07-08 06:30:00,
2013-07-07 23:35:00,55.7,54.6,29.87,WSW,253,17.0,20.0,96,0.00,,,0.00,WeatherCatV1.14B232,2013-07-08 06:35:00,
2013-07-07 23:40:00,55.6,54.5,29.87,WSW,249,12.0,18.0,96,0.00,,,0.00,WeatherCatV1.14B232,2013-07-08 06:40:00,
2013-07-07 23:45:00,55.6,54.8,29.87,WSW,246,11.0,17.0,97,0.00,,,0.00,WeatherCatV1.14B232,2013-07-08 06:45:00,
2013-07-07 23:50:00,55.6,54.8,29.87,West,264,14.0,18.0,97,0.00,,,0.00,WeatherCatV1.14B232,2013-07-08 06:50:00,
2013-07-07 23:55:00,55.5,54.7,29.87,West,268,13.0,19.0,97,0.00,,,0.00,WeatherCatV1.14B232,2013-07-08 06:55:00,